|
CZ-4C R/B - Orbit
|
Blue Mountain Vista Observatory;
04:38:40
| Home | Info | Passes |
|
View from above orbital plane
|
View from above satellite
|
Ground track
|
The orbit data is extracted from the following two-line orbital elements,
1 36416U 10009D 13142.86622991 -.00000056 00000-0 37762-4 0 5418
2 36416 063.4534 284.4063 0241691 003.1869 096.0930 13.69372322160848
| Epoch (UTC): | 22 May 2013 20:47:22 |
| Eccentricity: | 0.0241691 |
| inclination: | 63.4534° |
| perigee height: | 823 km |
| apogee height: | 1180 km |
| right ascension of ascending node: | 284.4063° |
| argument of perigee: | 3.1869° |
| revolutions per day: | 13.69372322 |
| mean anomaly at epoch: | 96.0930° |
| orbit number at epoch: | 16084 |
The dashed part of the orbit path shows where the satellite is in the earth's shadow,
|
|